Location: Unspecified
(51.7359°N, 0.5011°E)
Time: 03:14:50
(UTC+00:00)

Resurs 1-4 Rocket - Visible Passes

Search period start: 21 February 2019 00:00
Search period end: 03 March 2019 00:00
Orbit: 800 x 813 km, 98.6° (Epoch: 20 February)

Date Brightness Start Highest point End Pass type
(mag) Time Alt. Az. Time Alt. Az. Time Alt. Az.
21 Feb 4.8 02:02:43 10° NNE 02:03:24 14° NNE 02:03:24 14° NNE visible
21 Feb 4.4 03:43:30 10° N 03:44:29 14° NNW 03:44:29 14° NNW visible
22 Feb 4.9 01:38:10 10° NNE 01:38:37 12° NNE 01:38:37 12° NNE visible
22 Feb 4.3 03:18:29 10° N 03:19:42 16° N 03:19:42 16° N visible
23 Feb 5.1 01:13:47 10° NNE 01:13:50 10° NNE 01:13:50 10° NNE visible
23 Feb 4.4 02:53:37 10° N 02:54:55 17° N 02:54:55 17° N visible
24 Feb 4.4 02:28:52 10° N 02:30:08 18° N 02:30:08 18° N visible
24 Feb 4.3 04:10:22 10° NNW 04:11:14 12° NNW 04:11:14 12° NNW visible
25 Feb 4.6 02:04:13 10° NNE 02:05:21 17° NNE 02:05:21 17° NNE visible
25 Feb 4.2 03:45:02 10° N 03:46:27 15° NNW 03:46:27 15° NNW visible
26 Feb 4.7 01:39:40 10° NNE 01:40:34 15° NNE 01:40:34 15° NNE visible
26 Feb 4.1 03:20:01 10° N 03:21:40 18° NNW 03:21:40 18° NNW visible
27 Feb 4.9 01:15:16 10° NNE 01:15:48 13° NNE 01:15:48 13° NNE visible
27 Feb 4.1 02:55:08 10° N 02:56:53 20° N 02:56:53 20° N visible
28 Feb 4.2 02:30:22 10° N 02:32:06 21° N 02:32:06 21° N visible
28 Feb 4.2 04:11:55 10° NNW 04:13:11 13° NNW 04:13:11 13° NNW visible
01 Mar 4.3 02:05:42 10° NNE 02:07:19 20° NNE 02:07:19 20° NNE visible
01 Mar 4.1 03:46:34 10° N 03:48:24 16° NNW 03:48:24 16° NNW visible
02 Mar 4.5 01:41:09 10° NNE 01:42:32 18° NNE 01:42:32 18° NNE visible
02 Mar 4.0 03:21:32 10° N 03:23:38 20° NNW 03:23:38 20° NNW visible
